This demonstration page uses our WeatherBlox Daily Observations layout. Learn more.

Left ArrowRight Arrow

Hourly Observations for July 1, 2018

Temp ( °F °C ) Dew Point ( °F °C ) Humidity (%) Winds ( mph kmh ) Pressure ( in mb ) Visibility ( mi km ) Precip ( " mm )
12:59 am 00:59 Partly Cloudy 79 26.1 69 20.6 72 72 SSW 7 11 30.08 1019 10 16 0.00 0.00
1:59 am 01:59 Mostly Clear 78 25.6 69 20.6 74 74 SW 5 7 30.08 1019 10 16 0.00 0.00
2:59 am 02:59 Mostly Clear 78 25.6 68 20 71 71 SSW 8 13 30.06 1018 10 16 0.00 0.00
3:59 am 03:59 Clear 78 25.6 69 20.6 74 74 SSW 9 15 30.06 1018 10 16 0.00 0.00
4:59 am 04:59 Mostly Clear 78 25.6 72 22.2 82 82 SW 7 11 30.08 1019 10 16 0.00 0.00
5:59 am 05:59 Partly Cloudy 78 25.6 72 22.2 82 82 SW 6 9 30.08 1019 9 14 0.00 0.00
6:59 am 06:59 Partly Cloudy 79 26.1 72 22.2 79 79 WSW 5 7 30.09 1019 9 14 0.00 0.00
7:59 am 07:59 Partly Cloudy 81 27.2 74 23.3 79 79 W 7 11 30.10 1019 9 14 0.00 0.00
8:59 am 08:59 Partly Cloudy 83 28.3 75 23.9 77 77 W 6 9 30.11 1020 8 13 0.00 0.00
9:59 am 09:59 Partly Cloudy 86 30 75 23.9 70 70 WNW 3 6 30.10 1019 9 14 0.00 0.00
10:59 am 10:59 Partly Cloudy 89 31.7 74 23.3 61 61 W 6 9 30.10 1019 9 14 0.00 0.00
11:59 am 11:59 Partly Cloudy 90 32.2 73 22.8 58 58 WSW 7 11 30.11 1020 10 16 0.00 0.00
12:59 pm 12:59 Mostly Cloudy 91 32.8 74 23.3 57 57 E 8 13 30.09 1019 9 14 0.00 0.00
1:59 pm 13:59 Mostly Cloudy 91 32.8 71 21.7 52 52 ENE 9 15 30.08 1019 9 14 0.00 0.00
2:59 pm 14:59 Mostly Cloudy 92 33.3 70 21.1 49 49 ENE 12 19 30.07 1018 10 16 0.00 0.00
3:59 pm 15:59 Mostly Cloudy 90 32.2 72 22.2 56 56 ESE 10 17 30.06 1018 9 14 0.00 0.00
4:59 pm 16:59 Mostly Cloudy 90 32.2 72 22.2 56 56 SE 9 15 30.05 1018 9 14 0.00 0.00
5:59 pm 17:59 Mostly Cloudy 89 31.7 73 22.8 59 59 SE 7 11 30.04 1017 9 14 0.00 0.00
6:59 pm 18:59 Mostly Cloudy 88 31.1 73 22.8 61 61 SE 8 13 30.04 1017 10 16 0.00 0.00
7:59 pm 19:59 Partly Cloudy 86 30 73 22.8 65 65 SSE 5 7 30.04 1017 10 16 0.00 0.00
8:59 pm 20:59 Partly Cloudy 84 28.9 72 22.2 67 67 SSE 6 9 30.05 1018 10 16 0.00 0.00
9:59 pm 21:59 Clear 82 27.8 73 22.8 74 74 S 6 9 30.08 1019 10 16 0.00 0.00
10:59 pm 22:59 Clear 82 27.8 73 22.8 74 74 S 6 9 30.09 1019 10 16 0.00 0.00
11:59 pm 23:59 Clear 81 27.2 73 22.8 77 77 SSW 7 11 30.08 1019 9 14 0.00 0.00

Powered by AerisWeather